TimeCDT,TemperatureF,Dew PointF,Humidity,Sea Level PressureIn,VisibilityMPH,Wind Direction,Wind SpeedMPH,Gust SpeedMPH,PrecipitationIn,Events,Conditions,WindDirDegrees,DateUTC
12:01 AM,78.8,57.2,47,29.93,10.0,SSE,10.4,-,N/A,,Clear,160,2013-09-19 05:01:00
12:19 AM,78.8,57.2,47,29.93,10.0,SSE,11.5,-,N/A,,Clear,160,2013-09-19 05:19:00
12:41 AM,78.8,57.2,47,29.92,10.0,SSE,9.2,-,N/A,,Clear,160,2013-09-19 05:41:00
12:59 AM,78.8,57.2,47,29.92,10.0,SSE,11.5,-,N/A,,Clear,160,2013-09-19 05:59:00
1:21 AM,78.8,57.2,47,29.92,10.0,SSE,6.9,-,N/A,,Clear,160,2013-09-19 06:21:00
1:41 AM,77.0,57.2,50,29.92,10.0,SSE,10.4,-,N/A,,Clear,160,2013-09-19 06:41:00
1:59 AM,75.2,57.2,53,29.92,10.0,SSE,9.2,-,N/A,,Clear,160,2013-09-19 06:59:00
2:19 AM,77.0,57.2,50,29.92,10.0,South,9.2,-,N/A,,Clear,170,2013-09-19 07:19:00
2:39 AM,77.0,59.0,54,29.92,10.0,South,8.1,-,N/A,,Clear,170,2013-09-19 07:39:00
2:59 AM,73.4,60.8,65,29.92,10.0,SSE,6.9,-,N/A,,Clear,150,2013-09-19 07:59:00
3:19 AM,73.4,60.8,65,29.92,10.0,SSE,5.8,-,N/A,,Clear,150,2013-09-19 08:19:00
3:39 AM,71.6,60.8,69,29.92,10.0,SSE,5.8,-,N/A,,Clear,150,2013-09-19 08:39:00
3:59 AM,71.6,60.8,69,29.92,10.0,SE,5.8,-,N/A,,Clear,130,2013-09-19 08:59:00
4:21 AM,71.6,60.8,69,29.92,10.0,SE,4.6,-,N/A,,Clear,130,2013-09-19 09:21:00
4:39 AM,71.6,60.8,69,29.92,10.0,SE,5.8,-,N/A,,Clear,140,2013-09-19 09:39:00
4:59 AM,71.6,60.8,69,29.93,10.0,SE,5.8,-,N/A,,Clear,130,2013-09-19 09:59:00
5:19 AM,71.6,60.8,69,29.93,10.0,SE,5.8,-,N/A,,Clear,130,2013-09-19 10:19:00
5:39 AM,71.6,60.8,69,29.93,10.0,Calm,Calm,-,N/A,,Clear,0,2013-09-19 10:39:00
5:59 AM,71.6,60.8,69,29.93,10.0,Calm,Calm,-,N/A,,Clear,0,2013-09-19 10:59:00
6:19 AM,71.6,62.6,73,29.93,10.0,SE,5.8,-,N/A,,Clear,140,2013-09-19 11:19:00
6:39 AM,71.6,60.8,69,29.94,10.0,ESE,6.9,-,N/A,,Clear,120,2013-09-19 11:39:00
6:59 AM,69.8,62.6,78,29.94,10.0,SE,5.8,-,N/A,,Clear,130,2013-09-19 11:59:00
7:20 AM,69.8,62.6,78,29.95,10.0,SSE,5.8,-,N/A,,Clear,160,2013-09-19 12:20:00
7:41 AM,69.8,62.6,78,29.95,10.0,SE,5.8,-,N/A,,Clear,140,2013-09-19 12:41:00
8:00 AM,73.4,62.6,69,29.95,10.0,South,5.8,-,N/A,,Clear,170,2013-09-19 13:00:00
8:20 AM,75.2,62.6,65,29.96,10.0,South,5.8,-,N/A,,Clear,180,2013-09-19 13:20:00
8:40 AM,78.8,62.6,57,29.97,10.0,South,9.2,-,N/A,,Clear,190,2013-09-19 13:40:00
9:00 AM,78.8,64.4,61,29.97,10.0,South,9.2,-,N/A,,Scattered Clouds,180,2013-09-19 14:00:00
9:20 AM,80.6,64.4,58,29.97,10.0,South,10.4,-,N/A,,Scattered Clouds,190,2013-09-19 14:20:00
9:41 AM,80.6,64.4,58,29.98,10.0,SSW,11.5,-,N/A,,Scattered Clouds,200,2013-09-19 14:41:00
10:00 AM,82.4,64.4,54,29.98,10.0,SSW,15.0,-,N/A,,Scattered Clouds,200,2013-09-19 15:00:00
10:20 AM,82.4,64.4,54,29.99,10.0,SSW,13.8,-,N/A,,Clear,200,2013-09-19 15:20:00
10:40 AM,82.4,64.4,54,29.99,10.0,SSW,11.5,-,N/A,,Clear,210,2013-09-19 15:40:00
11:00 AM,82.4,66.2,58,29.99,10.0,SW,12.7,17.3,N/A,,Clear,220,2013-09-19 16:00:00
11:22 AM,84.2,66.2,55,29.99,10.0,SW,10.4,-,N/A,,Clear,230,2013-09-19 16:22:00
11:40 AM,84.2,66.2,55,29.99,10.0,SSW,10.4,-,N/A,,Clear,210,2013-09-19 16:40:00
12:00 PM,84.2,64.4,51,29.99,10.0,SW,11.5,-,N/A,,Clear,230,2013-09-19 17:00:00
12:21 PM,84.2,64.4,51,29.99,10.0,SW,10.4,-,N/A,,Clear,230,2013-09-19 17:21:00
12:40 PM,87.8,62.6,43,29.99,10.0,SSW,17.3,23.0,N/A,,Clear,200,2013-09-19 17:40:00
1:00 PM,84.2,64.4,51,29.99,10.0,South,19.6,-,N/A,,Clear,170,2013-09-19 18:00:00
1:20 PM,82.4,62.6,51,29.99,10.0,South,19.6,-,N/A,,Clear,170,2013-09-19 18:20:00
1:40 PM,80.6,64.4,58,29.99,10.0,South,17.3,24.2,N/A,,Clear,190,2013-09-19 18:40:00
2:00 PM,80.6,64.4,58,29.98,10.0,South,18.4,23.0,N/A,,Clear,180,2013-09-19 19:00:00
2:20 PM,78.8,66.2,65,29.98,10.0,South,11.5,-,N/A,Rain,Light Rain,190,2013-09-19 19:20:00
2:40 PM,78.8,69.8,74,29.97,10.0,SSW,9.2,-,N/A,Rain,Light Rain,200,2013-09-19 19:40:00
3:01 PM,80.6,66.2,61,29.97,10.0,SSW,16.1,21.9,N/A,,Clear,200,2013-09-19 20:01:00
3:20 PM,78.8,64.4,61,29.97,10.0,SSW,16.1,-,N/A,,Clear,210,2013-09-19 20:20:00
3:40 PM,75.2,66.2,73,29.97,10.0,SW,13.8,23.0,N/A,Rain,Light Rain,220,2013-09-19 20:40:00
4:00 PM,77.0,66.2,69,29.97,10.0,SW,17.3,-,N/A,,Scattered Clouds,220,2013-09-19 21:00:00
4:20 PM,78.8,64.4,61,29.96,10.0,SSW,16.1,-,N/A,,Clear,200,2013-09-19 21:20:00
4:40 PM,78.8,64.4,61,29.95,10.0,South,16.1,-,N/A,,Clear,190,2013-09-19 21:40:00
5:00 PM,78.8,64.4,61,29.95,10.0,South,13.8,-,N/A,,Clear,190,2013-09-19 22:00:00
5:20 PM,77.0,64.4,65,29.93,10.0,South,16.1,-,N/A,,Clear,190,2013-09-19 22:20:00
5:40 PM,77.0,66.2,69,29.91,10.0,South,17.3,-,N/A,,Clear,180,2013-09-19 22:40:00
6:00 PM,77.0,66.2,69,29.88,7.0,South,21.9,26.5,N/A,,Clear,180,2013-09-19 23:00:00
6:21 PM,75.2,66.2,73,29.91,10.0,WNW,5.8,-,N/A,,Clear,300,2013-09-19 23:21:00
6:40 PM,75.2,66.2,73,29.93,10.0,West,5.8,-,N/A,,Clear,280,2013-09-19 23:40:00
7:00 PM,75.2,68.0,78,29.94,10.0,West,4.6,-,N/A,,Clear,280,2013-09-20 00:00:00
7:22 PM,75.2,66.2,73,29.94,10.0,WSW,6.9,-,N/A,,Clear,240,2013-09-20 00:22:00
7:43 PM,75.2,66.2,73,29.95,10.0,WSW,4.6,-,N/A,,Clear,250,2013-09-20 00:43:00
8:00 PM,75.2,66.2,73,29.94,10.0,SSW,4.6,-,N/A,,Clear,200,2013-09-20 01:00:00
8:20 PM,73.4,66.2,78,29.94,10.0,SSW,4.6,-,N/A,,Clear,210,2013-09-20 01:20:00
8:41 PM,73.4,66.2,78,29.94,10.0,SSW,3.5,-,N/A,,Clear,210,2013-09-20 01:41:00
9:00 PM,73.4,66.2,78,29.95,10.0,Calm,Calm,-,N/A,,Clear,0,2013-09-20 02:00:00
9:20 PM,73.4,66.2,78,29.96,10.0,Calm,Calm,-,N/A,,Clear,0,2013-09-20 02:20:00
9:40 PM,73.4,68.0,83,29.97,10.0,Calm,Calm,-,N/A,,Clear,0,2013-09-20 02:40:00
10:00 PM,71.6,68.0,88,29.99,10.0,North,6.9,-,N/A,,Clear,360,2013-09-20 03:00:00
10:20 PM,73.4,68.0,83,29.99,10.0,North,4.6,-,N/A,,Clear,10,2013-09-20 03:20:00
10:40 PM,73.4,68.0,83,30.00,10.0,North,5.8,-,N/A,,Scattered Clouds,10,2013-09-20 03:40:00
11:00 PM,73.4,68.0,83,30.02,10.0,NNE,4.6,-,N/A,,Mostly Cloudy,30,2013-09-20 04:00:00
11:20 PM,73.4,68.0,83,30.04,10.0,North,8.1,-,N/A,,Mostly Cloudy,10,2013-09-20 04:20:00
11:39 PM,73.4,66.2,78,30.06,10.0,NNE,10.4,-,N/A,Rain,Light Rain,20,2013-09-20 04:39:00
11:59 PM,71.6,66.2,83,30.06,5.0,NNE,11.5,-,0.04,Rain,Heavy Rain,30,2013-09-20 04:59:00